This is the latest recevied weather packets stored in our database for station/object OE6PLD-13. If no packets are shown the sender has not sent any weather packets the latest 10 day(s).
| Time | Temp. | Humidity | Pressure | Rain* | Wind** | Luminosity | Snow |
|---|---|---|---|---|---|---|---|
| 1777752848 | 12.22° C | 69% | 1011.8 hPa | 0.76 mm | - | 0 W/m² | - |
| 1777752664 | 12.22° C | 67% | 1011.8 hPa | 0.76 mm | - | 0 W/m² | - |
| 1777752481 | 12.78° C | 67% | 1011.7 hPa | 0.76 mm | - | 0 W/m² | - |
| 1777752298 | 12.78° C | 65% | 1011.8 hPa | 0.76 mm | - | 0 W/m² | - |
| 1777752114 | 12.78° C | 63% | 1011.9 hPa | 0.76 mm | - | 0 W/m² | - |
| 1777751931 | 12.78° C | 65% | 1011.7 hPa | 0.76 mm | - | 0 W/m² | - |
| 1777751748 | 12.78° C | 65% | 1011.7 hPa | 0.76 mm | - | 0 W/m² | - |
| 1777751564 | 13.33° C | 66% | 1011.8 hPa | 0.76 mm | - | 0 W/m² | - |
| 1777751381 | 13.33° C | 64% | 1011.6 hPa | 0.76 mm | - | 0 W/m² | - |
| 1777751197 | 13.33° C | 64% | 1011.5 hPa | 0.76 mm | - | 0 W/m² | - |
| 1777751014 | 13.33° C | 64% | 1011.7 hPa | 0.76 mm | - | 0 W/m² | - |
| 1777750831 | 13.33° C | 64% | 1011.7 hPa | 0.76 mm | - | 0 W/m² | - |
| 1777750647 | 13.33° C | 66% | 1011.5 hPa | 0.76 mm | - | 0 W/m² | - |
| 1777750464 | 13.33° C | 64% | 1011.7 hPa | 0.76 mm | - | 0 W/m² | - |
| 1777750280 | 13.89° C | 66% | 1011.6 hPa | 0.76 mm | - | 0 W/m² | - |
| 1777750097 | 13.89° C | 65% | 1011.6 hPa | 0.76 mm | - | 0 W/m² | - |
| 1777749914 | 13.89° C | 62% | 1011.5 hPa | 0.76 mm | - | 0 W/m² | - |
| 1777749730 | 13.89° C | 62% | 1011.4 hPa | 0.76 mm | - | 0 W/m² | - |
| 1777749547 | 14.44° C | 59% | 1011.4 hPa | 0.76 mm | - | 0 W/m² | - |
| 1777749364 | 14.44° C | 59% | 1011.3 hPa | 0.76 mm | - | 0 W/m² | - |
| 1777749180 | 15° C | 60% | 1011.3 hPa | 0.76 mm | - | 0 W/m² | - |
| 1777748997 | 15° C | 59% | 1011.4 hPa | 0.76 mm | - | 0 W/m² | - |
| 1777748814 | 15° C | 59% | 1011.5 hPa | 0.76 mm | - | 0 W/m² | - |
| 1777748630 | 15.56° C | 58% | 1011.3 hPa | 0.76 mm | - | 0 W/m² | - |
| 1777748447 | 15.56° C | 57% | 1011.4 hPa | 0.76 mm | - | 0 W/m² | - |
* Rain latest hour (hover to see other rain measurements)
** Current wind speed in m/s (hover to see current wind gust speed)